Location: St Paul
(33.4390°N, 83.7350°W)
Time: 07:07:14
(UTC-04:00)

Cosmos 1766 Rocket - Pass Details

Date: 06 October 2017
Orbit: 605 x 633 km, 82.5° (Epoch: 18 October)

Event Time Altitude Azimuth Distance (km) Brightness Sun altitude
Rises 20:58:40 0° 347° (NNW) 2,892 7.3 -23.0°
Reaches altitude 10° 21:00:56 10° 343° (NNW) 1,988 6.5 -23.4°
Maximum altitude 21:05:13 53° 267° (W) 766 4.3 -24.3°
Drops below altitude 10° 21:09:30 10° 190° (S) 1,991 6.1 -25.2°
Enters shadow 21:09:55 - 189° (S) 2,154 6.3 -25.3°
